Precipitable_Water
0.79 0.68 0.65 0.71 0.78 0.84 0.89 0.93 0.95 0.88 0.86 0.87 0.83 0.75 0.70 0.65 0.67 0.64 0.62 0.62 0.67 0.69 0.60 0.64 0.62 0.59 0.58 0.54 0.53 0.54 0.51 0.51 0.49 0.47 0.48 0.47 0.48 0.46 0.46 0.45 0.45 0.44 0.43
0.86 0.68 0.70 0.74 0.81 0.89 0.94 0.98 0.95 0.90 0.88 0.84 0.81 0.76 0.68 0.65 0.62 0.60 0.59 0.62 0.61 0.64 0.61 0.59 0.63 0.57 0.59 0.53 0.51 0.51 0.52 0.49 0.48 0.47 0.46 0.45 0.45 0.45 0.45 0.45 0.45 0.44 0.44
0.95 0.78 0.75 0.79 0.87 0.97 0.98 0.95 0.95 0.93 0.88 0.85 0.79 0.77 0.72 0.67 0.60 0.57 0.56 0.56 0.58 0.58 0.58 0.57 0.57 0.61 0.57 0.54 0.52 0.50 0.49 0.48 0.45 0.46 0.44 0.44 0.43 0.43 0.45 0.43 0.44 0.45 0.44
0.99 0.86 0.81 0.86 0.93 1.01 1.03 0.96 0.90 0.87 0.84 0.83 0.80 0.76 0.74 0.72 0.67 0.61 0.60 0.56 0.53 0.54 0.53 0.55 0.55 0.56 0.56 0.54 0.50 0.50 0.49 0.46 0.45 0.45 0.44 0.43 0.42 0.41 0.43 0.42 0.43 0.41 0.42
1.03 0.93 0.85 0.89 0.98 0.96 1.00 0.97 0.89 0.87 0.80 0.79 0.82 0.80 0.75 0.72 0.71 0.65 0.60 0.58 0.56 0.56 0.54 0.51 0.51 0.51 0.52 0.53 0.53 0.53 0.48 0.47 0.46 0.44 0.42 0.41 0.41 0.41 0.41 0.42 0.41 0.41 0.40
1.08 1.00 0.87 0.85 0.93 0.89 0.97 1.02 1.00 0.97 0.84 0.78 0.75 0.78 0.75 0.71 0.72 0.67 0.59 0.59 0.57 0.57 0.57 0.52 0.53 0.51 0.51 0.51 0.51 0.52 0.50 0.49 0.46 0.45 0.42 0.39 0.41 0.40 0.40 0.39 0.39 0.39 0.39
1.04 0.96 0.90 0.84 0.81 0.80 0.92 1.02 1.05 1.00 0.94 0.78 0.66 0.67 0.68 0.66 0.65 0.66 0.62 0.57 0.54 0.56 0.56 0.55 0.54 0.53 0.54 0.51 0.52 0.51 0.52 0.51 0.48 0.46 0.43 0.39 0.40 0.37 0.38 0.38 0.37 0.37 0.37
1.17 1.05 0.93 0.85 0.76 0.73 0.87 0.95 1.02 1.00 0.97 0.84 0.64 0.62 0.56 0.60 0.60 0.57 0.57 0.50 0.51 0.54 0.51 0.52 0.53 0.53 0.53 0.54 0.54 0.50 0.51 0.52 0.48 0.46 0.44 0.40 0.39 0.37 0.36 0.36 0.36 0.35 0.35
1.33 1.22 1.11 0.99 0.85 0.78 0.76 0.90 0.96 1.00 0.93 0.94 0.85 0.64 0.55 0.50 0.58 0.61 0.56 0.54 0.48 0.48 0.47 0.47 0.48 0.50 0.51 0.52 0.54 0.53 0.50 0.49 0.46 0.45 0.44 0.42 0.38 0.38 0.38 0.36 0.35 0.35 0.34
1.34 1.29 1.24 1.20 1.04 0.91 0.79 0.81 0.92 0.98 0.98 0.90 0.94 0.87 0.80 0.69 0.53 0.49 0.61 0.63 0.56 0.47 0.45 0.46 0.42 0.45 0.48 0.50 0.51 0.52 0.50 0.49 0.44 0.44 0.43 0.45 0.41 0.39 0.39 0.37 0.35 0.34 0.33
1.36 1.33 1.26 1.27 1.21 1.08 0.97 0.87 0.83 0.91 0.99 0.97 0.97 0.93 0.86 0.92 0.80 0.57 0.47 0.52 0.61 0.56 0.54 0.51 0.48 0.42 0.44 0.46 0.47 0.49 0.49 0.48 0.45 0.42 0.41 0.43 0.42 0.42 0.41 0.39 0.37 0.35 0.35
1.27 1.38 1.33 1.26 1.26 1.21 1.11 1.00 0.93 0.92 0.95 0.97 1.03 1.01 0.90 0.85 0.90 0.82 0.64 0.56 0.49 0.56 0.58 0.60 0.56 0.52 0.44 0.45 0.44 0.45 0.47 0.46 0.44 0.43 0.40 0.40 0.41 0.40 0.41 0.40 0.39 0.37 0.35
1.22 1.29 1.30 1.29 1.29 1.23 1.23 1.17 1.06 0.95 0.98 0.96 1.04 1.06 1.06 0.98 0.97 0.97 0.90 0.80 0.63 0.59 0.58 0.62 0.64 0.59 0.50 0.48 0.47 0.45 0.45 0.44 0.44 0.43 0.42 0.39 0.37 0.39 0.40 0.41 0.41 0.40 0.39
1.21 1.22 1.28 1.32 1.38 1.39 1.30 1.29 1.22 1.09 1.04 1.05 1.07 1.13 1.12 1.12 1.09 1.04 0.98 0.93 0.75 0.64 0.59 0.57 0.68 0.67 0.60 0.53 0.50 0.48 0.46 0.44 0.45 0.45 0.43 0.42 0.39 0.36 0.37 0.39 0.40 0.39 0.39
1.23 1.25 1.27 1.31 1.37 1.34 1.34 1.27 1.26 1.19 1.09 1.11 1.10 1.21 1.21 1.22 1.22 1.21 1.17 1.10 0.99 0.78 0.63 0.65 0.61 0.70 0.68 0.63 0.63 0.59 0.54 0.47 0.46 0.46 0.45 0.44 0.41 0.37 0.35 0.36 0.37 0.37 0.36
1.26 1.27 1.30 1.33 1.31 1.31 1.36 1.35 1.34 1.34 1.26 1.17 1.15 1.17 1.24 1.30 1.31 1.28 1.25 1.20 1.15 1.02 0.85 0.80 0.74 0.73 0.72 0.68 0.68 0.65 0.64 0.63 0.50 0.48 0.47 0.45 0.44 0.42 0.38 0.36 0.35 0.36 0.35
1.25 1.29 1.27 1.26 1.27 1.22 1.30 1.32 1.36 1.38 1.30 1.22 1.20 1.19 1.22 1.29 1.34 1.35 1.27 1.27 1.22 1.18 1.01 0.98 0.92 0.92 0.82 0.71 0.68 0.69 0.67 0.63 0.62 0.60 0.57 0.52 0.46 0.44 0.42 0.39 0.37 0.36 0.35
1.20 1.18 1.20 1.18 1.22 1.22 1.24 1.27 1.30 1.35 1.35 1.27 1.24 1.18 1.11 1.20 1.31 1.38 1.32 1.29 1.31 1.30 1.18 1.06 1.09 1.00 1.00 0.91 0.77 0.69 0.68 0.67 0.63 0.63 0.61 0.59 0.53 0.48 0.45 0.41 0.39 0.40 0.37
1.07 1.10 1.17 1.16 1.15 1.18 1.18 1.21 1.30 1.35 1.36 1.34 1.37 1.27 1.24 1.21 1.08 1.08 1.24 1.22 1.32 1.37 1.33 1.20 1.15 1.16 1.07 1.03 0.94 0.79 0.70 0.68 0.67 0.65 0.64 0.62 0.61 0.58 0.53 0.46 0.43 0.43 0.43
0.99 1.00 1.00 1.03 1.21 1.19 1.20 1.23 1.26 1.30 1.35 1.36 1.36 1.35 1.31 1.31 1.25 1.22 1.14 1.13 1.24 1.28 1.37 1.25 1.21 1.20 1.18 1.09 1.00 0.89 0.74 0.72 0.67 0.68 0.65 0.65 0.65 0.63 0.60 0.55 0.49 0.45 0.44
1.11 1.01 0.94 0.93 0.98 1.07 1.23 1.28 1.27 1.20 1.21 1.24 1.32 1.34 1.37 1.40 1.39 1.36 1.29 1.16 1.13 1.20 1.25 1.19 1.21 1.21 1.17 1.13 0.99 0.93 0.87 0.78 0.74 0.72 0.68 0.65 0.65 0.63 0.62 0.62 0.55 0.49 0.45
1.11 1.07 0.97 0.89 0.87 0.91 1.08 1.21 1.26 1.22 1.22 1.20 1.23 1.30 1.36 1.40 1.39 1.37 1.36 1.35 1.31 1.18 1.17 1.20 1.18 1.20 1.17 1.18 1.19 1.05 0.93 0.88 0.75 0.79 0.72 0.62 0.67 0.62 0.65 0.65 0.59 0.53 0.50
0.79 0.84 0.93 0.93 0.84 0.88 0.91 0.94 1.06 1.21 1.22 1.23 1.22 1.23 1.25 1.34 1.36 1.32 1.29 1.30 1.30 1.32 1.28 1.27 1.22 1.20 1.18 1.26 1.25 1.20 1.08 0.93 0.90 0.89 0.81 0.63 0.70 0.64 0.67 0.66 0.63 0.59 0.53
0.65 0.66 0.75 0.94 0.90 0.86 0.93 0.93 0.92 0.96 1.09 1.19 1.27 1.31 1.32 1.33 1.38 1.32 1.28 1.23 1.21 1.24 1.24 1.27 1.29 1.31 1.32 1.29 1.24 1.23 1.25 1.11 1.07 1.05 0.96 0.72 0.75 0.66 0.70 0.69 0.69 0.66 0.59
0.71 0.71 0.82 0.85 0.91 0.91 0.94 1.01 1.03 0.98 0.94 0.95 1.01 1.10 1.26 1.37 1.44 1.43 1.35 1.23 1.16 1.18 1.27 1.28 1.34 1.37 1.40 1.40 1.34 1.27 1.17 1.14 0.99 0.99 1.05 0.92 0.79 0.71 0.71 0.69 0.71 0.71 0.67
0.76 0.78 0.87 0.94 0.98 0.98 1.03 1.07 1.12 1.12 1.00 0.97 1.00 1.06 1.08 1.16 1.35 1.45 1.41 1.28 1.11 1.10 1.14 1.21 1.22 1.27 1.31 1.35 1.36 1.31 1.27 1.13 1.10 1.00 1.04 0.97 0.91 0.84 0.69 0.73 0.72 0.72 0.72
Wind_Speed
12 12 12 12 11 8 6 4 1 4 5 4 3 3 4 4 4 5 5 5 6 6 7 7 7 7 8 8 9 9 10 11 11 11 12 13 13 14 15 15 17 18 19
12 14 13 13 11 9 7 4 3 5 4 3 2 2 2 3 4 4 4 4 4 5 5 5 5 6 6 7 7 7 8 8 9 10 10 11 11 12 13 14 15 17 19
14 15 14 13 12 11 9 6 5 5 3 3 3 2 2 3 3 3 3 2 2 3 3 4 4 4 4 5 5 5 6 6 7 8 8 9 9 10 11 12 14 16 17
15 15 16 15 14 13 11 9 7 5 4 4 3 3 2 2 3 3 3 2 1 0 1 2 2 2 3 3 4 4 4 4 5 6 7 7 8 9 10 11 13 14 16
17 16 16 16 15 14 13 10 9 8 6 4 4 5 5 4 4 4 5 4 3 2 1 1 1 1 1 2 2 2 3 3 4 4 5 6 7 7 9 10 11 13 14
19 17 17 17 16 16 14 13 11 9 9 7 6 5 6 7 6 6 7 7 6 5 4 3 3 3 3 2 3 3 3 3 4 4 4 5 6 7 8 9 10 12 13
20 19 18 19 19 18 17 16 14 12 10 9 8 7 7 8 8 9 9 9 9 8 7 6 6 5 5 5 4 4 4 4 5 5 5 6 6 7 8 9 10 11 12
22 21 20 20 20 20 19 18 17 14 13 12 9 8 8 9 11 11 10 10 11 11 10 9 8 8 8 7 7 7 6 6 7 7 7 7 8 8 9 9 10 11 13
24 23 23 22 22 22 21 21 20 18 15 15 13 10 9 11 10 12 13 12 12 12 12 12 12 11 11 10 10 9 9 9 9 9 9 9 10 10 10 11 11 12 13
27 25 25 26 25 24 23 23 23 22 19 18 16 15 12 10 11 11 13 15 14 14 14 14 14 14 13 13 13 12 12 12 11 11 11 11 12 12 12 12 13 13 14
25 25 26 26 28 27 26 25 25 26 24 22 20 18 16 13 12 12 12 13 16 16 16 16 16 16 16 16 16 15 15 14 14 14 13 13 14 14 14 14 14 15 15
24 25 26 27 28 30 29 28 28 28 27 25 24 21 19 17 15 13 13 14 16 17 18 18 18 18 18 18 18 18 18 17 16 16 16 16 16 16 16 16 16 16 17
26 25 25 24 27 30 32 31 31 30 29 29 28 26 24 22 20 18 17 16 17 19 18 20 20 20 20 20 20 20 20 20 19 19 18 18 18 18 18 18 18 18 18
29 28 27 25 26 27 29 33 35 32 32 32 31 31 28 27 25 23 20 18 18 19 20 20 20 22 22 22 22 22 22 22 22 21 21 21 20 20 20 20 20 20 20
32 31 30 30 27 27 28 29 34 35 34 34 34 34 33 30 29 28 26 24 21 20 20 22 22 23 24 24 23 23 23 24 24 24 24 23 23 23 23 23 22 22 22
33 33 32 32 30 29 28 28 29 32 35 36 37 37 37 35 33 31 30 28 27 24 24 23 24 25 25 26 26 26 25 25 26 26 26 26 26 25 25 25 25 25 24
34 33 34 34 33 32 31 29 29 30 32 33 37 39 38 38 38 36 34 32 31 30 28 27 26 26 27 27 28 28 29 28 28 29 29 29 29 28 28 27 27 27 27
34 34 34 34 33 33 34 33 32 32 31 33 34 38 40 39 40 40 39 37 36 34 33 31 29 29 28 29 31 31 31 32 32 31 31 31 31 31 30 30 30 29 29
35 35 35 35 35 35 34 34 35 35 34 33 35 35 38 41 41 41 41 40 39 38 38 36 34 32 32 30 30 31 32 33 34 34 33 33 33 33 33 33 33 32 31
37 36 36 37 37 36 36 35 35 36 37 35 34 35 35 37 40 42 43 42 41 40 41 41 39 36 35 34 33 32 33 34 34 35 35 35 35 35 35 35 35 34 34
37 38 37 37 37 38 38 37 38 37 37 37 37 36 36 36 37 38 40 42 43 43 42 41 41 41 37 35 35 35 35 34 35 36 36 36 37 36 37 37 36 36 35
38 38 38 38 37 38 39 39 39 39 38 37 37 37 36 36 38 36 39 41 42 44 45 44 43 42 41 40 39 38 37 35 35 36 38 38 38 37 38 38 37 37 36
40 40 39 39 39 39 39 39 40 41 41 40 40 39 39 38 38 38 39 40 42 44 45 45 45 44 44 43 42 42 41 41 39 37 36 37 36 38 38 38 37 37 37
41 41 40 40 40 40 39 39 40 41 43 44 44 44 44 43 42 41 40 41 41 41 43 44 46 47 47 46 46 46 47 47 45 42 40 39 37 38 38 39 38 37 37
41 41 40 40 40 40 40 40 41 42 44 45 45 46 46 46 45 45 44 44 43 42 42 44 47 49 50 49 48 47 47 47 46 44 43 42 40 39 39 40 39 39 39
38 39 40 39 39 40 40 41 41 42 44 45 46 46 47 48 48 46 46 47 48 47 46 46 48 50 51 51 51 52 52 51 51 47 46 44 42 40 39 39 39 39 39
Wind_Direction
193 188 183 181 179 181 179 174 169 149 152 151 122 101 120 121 115 109 100 90 82 75 67 69 70 66 67 63 62 62 61 60 59 57 55 52 51 49 44 40 36 31 28
196 193 190 191 193 195 197 189 172 164 162 167 157 113 130 141 138 134 115 100 86 74 65 65 67 65 66 61 62 59 59 58 55 52 51 48 46 44 40 36 32 28 25
204 201 200 202 205 205 206 201 189 182 189 190 192 173 150 162 168 168 160 131 93 68 58 57 63 60 66 56 54 54 53 51 47 46 43 42 40 37 34 29 27 26 23
209 207 208 211 212 214 213 212 207 208 222 227 228 218 210 206 201 199 198 199 187 98 40 40 47 47 52 43 39 39 38 37 37 36 32 31 30 27 25 22 20 19 19
213 213 214 215 217 214 215 219 220 223 224 226 236 241 238 240 232 229 223 226 238 244 280 317 332 342 352 0 4 14 9 14 17 14 15 14 13 12 13 12 12 12 12
217 219 220 219 221 217 222 224 226 233 236 241 241 248 255 250 245 243 241 238 243 251 264 272 281 287 288 300 315 321 328 333 339 340 342 347 349 351 354 357 360 1 2
220 222 224 223 224 223 226 227 230 233 239 244 243 255 262 258 254 251 249 245 245 249 257 265 269 270 275 275 285 292 298 303 311 315 317 321 329 332 336 339 345 349 352
225 226 227 227 226 227 230 230 232 235 241 240 249 254 269 270 259 256 254 252 248 249 254 259 265 266 269 269 273 279 284 287 297 301 303 304 310 315 319 325 330 335 340
229 231 232 232 230 231 233 233 233 235 239 240 243 259 270 271 268 260 253 254 252 253 256 258 262 264 266 266 269 273 277 280 286 289 294 296 300 303 308 313 318 323 328
233 236 237 236 234 235 237 237 235 236 239 241 245 253 266 272 270 272 260 254 254 256 258 259 262 263 264 265 266 270 274 276 280 283 286 289 293 296 299 303 308 312 316
235 238 239 239 237 238 239 240 239 238 239 242 245 249 257 264 271 271 270 263 256 258 258 260 263 263 263 264 265 267 270 273 276 278 281 284 287 291 294 297 300 304 307
238 240 242 242 241 240 241 242 243 242 241 243 245 248 252 257 265 270 271 270 263 262 261 261 262 263 263 265 265 266 267 271 273 275 278 280 283 286 289 292 295 298 301
240 242 243 245 244 244 242 243 244 245 244 245 245 248 252 255 259 265 269 270 270 265 267 264 262 263 264 265 265 265 266 268 269 272 275 278 279 282 285 288 291 293 295
243 244 244 247 247 247 247 246 245 246 247 248 248 248 252 255 256 260 265 270 273 272 266 266 266 264 265 265 266 265 266 267 268 270 273 276 278 279 281 283 286 289 291
244 244 245 246 250 252 250 251 245 247 249 249 250 249 250 254 256 258 261 264 269 271 271 269 268 267 266 265 266 266 267 267 267 269 271 273 276 277 279 281 283 286 288
244 244 245 246 249 252 251 252 251 248 251 252 251 252 250 252 255 257 258 261 263 268 271 270 269 269 268 267 266 265 267 268 267 268 270 272 274 275 277 278 280 283 285
243 244 245 247 248 250 251 253 252 252 255 256 253 251 252 252 253 255 258 260 261 263 267 271 271 273 271 269 267 266 267 268 269 268 269 270 272 274 275 276 278 281 283
243 245 246 247 248 249 250 253 253 254 257 259 258 252 251 253 254 255 256 259 260 261 264 269 270 270 271 271 270 269 267 267 268 269 269 270 271 272 274 275 276 278 280
244 246 247 248 249 250 251 254 254 256 258 264 259 258 254 253 255 256 257 259 259 261 262 266 268 271 271 272 272 271 271 269 267 269 270 270 270 272 273 273 274 276 278
245 246 248 249 250 251 252 253 255 257 258 261 260 259 258 257 257 257 256 257 259 261 261 263 266 267 269 270 270 271 271 270 270 269 269 270 271 272 272 272 273 274 276
246 247 249 250 250 250 253 254 255 258 259 260 259 258 261 261 261 260 258 257 258 260 261 262 264 265 265 268 268 269 271 272 271 270 270 269 271 272 273 272 273 272 273
247 248 248 249 251 252 252 255 256 257 258 259 259 259 262 262 262 262 260 260 261 260 259 260 263 263 264 266 267 267 268 271 274 271 271 271 269 271 272 273 273 272 272
246 247 249 250 251 253 254 255 256 257 258 258 258 260 262 264 263 263 262 263 264 263 261 260 260 262 264 265 267 267 265 266 270 272 271 273 270 270 270 272 272 272 271
246 247 249 250 252 254 255 256 257 258 258 259 260 262 263 264 264 263 265 264 265 266 263 261 262 264 265 266 265 267 266 266 268 269 268 272 272 271 271 271 272 272 272
246 246 249 251 252 255 257 257 258 259 259 260 262 263 262 263 264 263 263 265 267 267 268 265 264 266 266 266 267 267 266 264 265 266 265 269 271 272 272 271 271 271 272
247 247 249 252 254 256 258 259 260 261 260 261 262 263 264 263 264 264 263 264 266 269 270 269 268 268 267 268 267 266 266 264 264 266 264 264 267 270 274 272 271 270 271